Terminal Aerodrome Forecast
Issued by NWS

Home | Current Version | Previous Version | Text Only | Print | Product List | Glossary On
Versions: 1 2 3 4 5 6 7 8 9 10 11 12 13 14 15 16 17 18 19 20 21 22 23
000
FTUS43 KAPX 030731 AAA
TAFMBL
TAF AMD
KMBL 030731Z 0308/0406 00000KT 1/4SM FG OVC001
      TEMPO 0309/0311 2SM BR SCT001
     FM031100 29004KT P6SM SKC
     FM031400 29009KT P6SM SCT040
     FM031900 27009KT P6SM SCT050
     FM040100 VRB03KT P6SM BKN050
      AMD LTD TO CLD VIS AND WIND=

USA.gov is the U.S. government's official web portal to all federal, state and local government web resources and services.